AirNav   Air Wisconsin Up To $57,000 Bonus
 
 606 users online  

KRIR Flabob Airport
Riverside/Rubidoux, California, USA

GOING TO RIVERSIDE/RUBIDOUX?


FAA INFORMATION EFFECTIVE 06 OCTOBER 2022

Location

FAA Identifier: RIR
Lat/Long: 33-59-19.6350N 117-24-35.6750W
33-59.327250N 117-24.594583W
33.9887875,-117.4099097
(estimated)
Elevation: 767 ft. / 234 m (estimated)
Variation: 13E (2010)
From city: 3 miles NW of central business district of the associated city
Time zone: UTC -7 (UTC -8 during Standard Time)
Zip code: 92509

Airport Operations

Airport use: Open to the public
Activation date: 04/1942
Control tower: no
ARTCC: LOS ANGELES CENTER
FSS: RIVERSIDE FLIGHT SERVICE STATION
NOTAMs facility: RAL (NOTAM-D service available)
Attendance: MON-FRI 0830-1630
Pattern altitude: 1467 ft. MSL
NIGHT TPA 1000 FT AGL AROUND THE MOUNTAIN.
Wind indicator: lighted
Segmented circle: no
Lights: DUSK-DAWN. ACTVT MIRL RY 06/24 - CTAF.

Airport Communications

CTAF/UNICOM: 122.8
SOCAL APPROACH: 135.4
SOCAL DEPARTURE: 135.4
CLASS C: 135.4 ;SOUTH-SW
WX ASOS at RAL (2.8 nm SW): 128.8 (951-352-4392)
WX ASOS at ONT (10 nm NW): PHONE 909-937-2186
WX AWOS-3 at SBD (11 nm NE): PHONE 909-382-0067
WX AWOS-3PT at AJO (11 nm SW): 132.175 (951-340-4764)
WX ASOS at CNO (11 nm W): PHONE 909-393-5823
WX AWOS-3P at CCB (16 nm NW): 119.525 (909-985-4731)
WX AWOS-3PT at POC (19 nm W): 124.4 (909-596-1523)

Nearby radio navigation aids

VOR radial/distance  VOR name  Freq  Var
RALr031/(2.8)RIVERSIDE VOR108.6014E
PDZr040/7.3PARADISE VORTAC112.2015E
HDFr305/(17.0)HOMELAND VOR112.0514E
POMr091/19.5POMONA VORTAC110.4015E
ELBr026/24.7EL TORO VOR/DME117.2014E
SLIr054/34.4SEAL BEACH VORTAC115.7015E
VCVr168/36.3VICTORVILLE VOR/DME109.0514E

 
NDB name  Hdg/Dist  Freq  Var  ID
PETIS194/4.639714ESB ... -...

Airport Services

Fuel available: 100LL
Parking: tiedowns
Airframe service: MAJOR
Powerplant service: MAJOR
Bottled oxygen: NONE
Bulk oxygen: NONE

Runway Information

Runway 6/24

Dimensions: 3190 x 50 ft. / 972 x 15 m
Surface: asphalt, in poor condition
RWY 6/24 THERMAL AND BLOCK CRACKING
Runway edge lights: medium intensity
RY 06/24 NSTD MIRL; ONE RED/GREEN LGT EACH SIDE OF THLD.
Runway edge markings: RWY MARKINGS FADED.
RUNWAY 6  RUNWAY 24
Latitude: 33-59.267000N33-59.387500N
Longitude: 117-24.901833W117-24.287333W
Elevation: 750.3 ft.766.8 ft.
Traffic pattern: leftleft
Runway heading: 064 magnetic, 077 true244 magnetic, 257 true
Markings: basic, in poor conditionbasic, in poor condition
Runway end identifier lights: nono
Touchdown point: yes, no lightsyes, no lights
Obstructions: 25 ft. trees, 310 ft. from runway, 4:1 slope to clearnone

Airport Ownership and Management from official FAA records

Ownership: Privately-owned
Owner: FLABOB AIRPORT, LLC
4130 MENNES AVE
RIVERSIDE, CA 92509
Phone 951-683-2309
Manager: BETH LAROCK
4130 MENNES AVE
RIVERSIDE, CA 92509
Phone 951-683-2309

Airport Operational Statistics

Aircraft based on the field: 122
Single engine airplanes: 110
Multi engine airplanes: 12
    
Aircraft operations: avg 30/day *
74% local general aviation
26% transient general aviation
* for 12-month period ending 31 December 2020

Additional Remarks

MTN 1340 FT MSL 3/4 MILE SE OF ARPT +20 FT CROSS ON TOP.
DEPARTURES TO THE SOUTH CTC RIVERSIDE ATCT.
RY 24 AFT TKOF TURN LEFT 10 DEG; STAY NORTH OF RIVERBED.
RY 24 CALM WIND RY.
FOR CD CTC SOCAL APCH AT 800-448-3724.

Instrument Procedures

NOTE: All procedures below are presented as PDF files. If you need a reader for these files, you should download the free Adobe Reader.

NOT FOR NAVIGATION. Please procure official charts for flight.
FAA instrument procedures published for use from 6 October 2022 at 0901Z to 3 November 2022 at 0900Z.

 
IAPs - Instrument Approach Procedures
RNAV (GPS)-A   download (246KB)
NOTE: Special Take-Off Minimums/Departure Procedures apply   download (132KB)

Other nearby airports with instrument procedures:

KRAL - Riverside Municipal Airport (3 nm SW)
KRIV - March Air Reserve Base (10 nm SE)
KONT - Ontario International Airport (10 nm NW)
KSBD - San Bernardino International Airport (11 nm NE)
KAJO - Corona Municipal Airport (11 nm SW)
KCNO - Chino Airport (11 nm W)
KREI - Redlands Municipal Airport (14 nm NE)
KCCB - Cable Airport (16 nm NW)
KPOC - Brackett Field Airport (19 nm W)
 
Loc | Ops | Rwys | IFR | FBO | Links
Com | Nav | Svcs | Stats | Notes

Luxivair - San Bernardino International Airport
 
Area around KRIR (Flabob Airport)
 
Road maps at: MapQuest Bing Google
 
Aerial photo
WARNING: Photo may not be current or correct
Aerial photo of KRIR (Flabob Airport)
Photo by Fred Emmert AirViews.com
Photo taken 25-Sep-2013
looking northeast.

Do you have a better or more recent aerial photo of Flabob Airport that you would like to share? If so, please send us your photo.

 
Sectional chart

 
Airport distance calculator
Flying to Flabob Airport? Find the distance to fly.

From to KRIR

Sunrise and sunset
Times for 07-Oct-2022
 Local
(UTC-7)
 Zulu
(UTC)
Morning civil twilight06:2513:25
Sunrise06:5013:50
Sunset18:2501:25
Evening civil twilight18:5001:50

Current date and time
Zulu (UTC)  07-Oct-2022 10:01:10
Local (UTC-7)  07-Oct-2022 03:01:10
 
METAR
KRAL 
3nm SW 
070953Z AUTO 00000KT 6SM BR OVC021 18/17 A3004 RMK AO2 SLP158 T01830167
KONT 
9nm NW 
070953Z 00000KT 4SM BR FEW008 SCT021 18/17 A3004 RMK AO2 SLP159 T01780167
KRIV 
10nm SE 
070955Z AUTO 34004KT 7SM CLR 17/16 A3006 RMK AO2 SLP167 T01740159
KCNO 
10nm W 
070953Z AUTO 00000KT 3SM BR OVC022 18/16 A3005 RMK AO2 SLP171 T01780161
KSBD 
11nm NE 
071000Z AUTO 00000KT 4SM HZ OVC022 18/15 A3006 RMK AO2 T01800146
KAJO 
11nm SW 
070956Z AUTO 00000KT 10SM BKN012 OVC023 17/16 A3005 RMK AO2 SLP169 T01670156
KCCB 
16nm NW 
119.525 909-985-4731
070955Z AUTO 36004KT 1SM BR 17/17 A3005 RMK AO2
KPOC 
19nm W 
070347Z 21005KT 10SM CLR 19/17 A3006 RMK LAST
TAF
KONT 
9nm NW 
070520Z 0706/0812 VRB04KT P6SM SKC FM071000 VRB03KT 3SM BR OVC005 FM071800 20005KT 5SM HZ SCT011 FM072000 26013KT P6SM SCT100 FM080400 VRB04KT P6SM FEW100
KRIV 
10nm SE 
070400Z 0704/0810 VRB04KT 9999 FEW140 QNH3003INS BECMG 0710/0711 VRB04KT 3200 BR OVC002 QNH3003INS BECMG 0711/0712 VRB04KT 0400 FG VV001 QNH3004INS BECMG 0715/0716 VRB04KT 3200 BR BKN002 QNH3007INS BECMG 0716/0717 VRB04KT 9999 NSW FEW005 QNH3001INS BECMG 0719/0720 32009KT 9999 FEW140 510005 QNH2996INS TS OMTNS E-SE TIL 0803 TEMPO 0721/0802 32012G20KT 9999 VCTS SCT140CB SCT250 BECMG 0805/0806 VRB04KT 9999 FEW140 QNH3005INS TX32/0722Z TN15/0713Z
KSBD 
11nm NE 
070520Z 0706/0806 26004KT 6SM HZ SCT100 TEMPO 0712/0716 3SM BR BKN005 FM071700 26005KT 3SM HZ SKC FM072100 26010KT 5SM HZ SCT100 FM080400 VRB04KT 6SM HZ SKC
NOTAMs
Click for the latest NOTAMs
NOTAMs are issued by the DoD/FAA and will open in a separate window not controlled by AirNav.

 

 
 

FBO, Fuel Providers, and Aircraft Ground Support

  
 Business Name 
 
 Contact 
 
 Services / Description 
 
Fuel Prices
 
Comments
  
Flabob Airport 951-683-2309
[web site]
Airport management, Aviation fuel, Aircraft parking (ramp or tiedown), Hangar leasing / sales, Flight training, Aircraft maintenance, Restrooms, Restaurant

More info about Flabob Airport
Phillips 66
100LL
SS $5.91 
 Updated 29-Sep-2022
 
   1 read write
SS=Self service
Update Fuel Prices
 

Where to Eat: Catering, Restaurants, Food shops

  
 Business Name 
 
 Contact 
 
 Services / Description 
 
Distance
 
Comments
  
Flabob Cafe 951-686-6660
no information available

If you are affiliated with Flabob Cafe and would like to show here your services, contact info, web link, logo, and more, click here
on airport  
   write
 

Would you like to see your business listed on this page?

 If your business provides an interesting product or service to pilots, flight crews, aircraft, or users of the Flabob Airport, you should consider listing it here.  To start the listing process, click on the button below
 
Add a business
 

Other Pages about Flabob Airport

www.flabob.org
philtilden.com/...
 
Update a link
 
Copyright © AirNav, LLC. All rights reserved. Privacy Policy  Contact